Regional Weather Roundup
Issued by NWS

Home | Current Version | Previous Version | Graphics & Text | Print | Product List | Glossary On
Versions: 1 2 3 4 5 6 7 8 9 10 11 12 13 14 15 16 17 18 19 20 21 22 23 24 25 26 27 28 29 30 31 32 33 34 35 36 37 38 39 40 41 42 43 44 45 46 47 48
191
ASUS45 KCYS 060710
RWRWY

WYOMING REGIONAL WEATHER ROUNDUP
NATIONAL WEATHER SERVICE CHEYENNE WY
1200 AM MST SAT FEB 06 2016

NOTE:  "FAIR" INDICATES FEW OR NO CLOUDS BELOW 12,000 FEET
WITH NO SIGNIFICANT WEATHER AND/OR OBSTRUCTIONS TO VISIBILITY.

WYZ001-060800-
YELLOWSTONE NATIONAL PARK

CITY           SKY/WX    TMP DP  RH WIND       PRES   REMARKS
LK YELLOWSTONE   N/A     19  15  84 CALM      30.37F
W YELLOWSTONE  NOT AVBL

$$
WYZ002>013-054>058-071-098>099-060800-
NORTHERN WYOMING

CITY           SKY/WX    TMP DP  RH WIND       PRES   REMARKS
JACKSON        CLOUDY    16  14  93 N5        30.41S WCI   9
CODY           FAIR      36  16  44 W15G26    30.15R WCI  26
GREYBULL       FAIR      20  15  81 SE3       30.24S
WORLAND        FAIR      17  11  77 S7        30.22F WCI   8
SHERIDAN       FAIR      23  13  65 SW6       30.07F WCI  16
BUFFALO        FAIR      30  12  47 SW9       30.09F WCI  22
GILLETTE       FAIR      27  14  58 SW17      30.10F WCI  14
HULETT         FAIR      30  16  55 SW14      30.10F WCI  20
NEWCASTLE      FAIR      18  12  79 E7        30.17S WCI   8

$$
WYZ014>020-022>026-101>103-060800-
CENTRAL WYOMING

CITY           SKY/WX    TMP DP  RH WIND       PRES   REMARKS
BIG PINEY      FAIR       8   4  83 SW6       30.38R WCI  -2
PINEDALE       FAIR      16  10  79 NW9       30.36S WCI   4
DUBOIS         FAIR      23  14  68 N24G33    30.27R WCI   7
LANDER         FAIR      18   9  68 SW3       30.21S
RIVERTON       FAIR      18   9  68 SW7       30.22F WCI   9
CASPER         FAIR      23  15  71 SW25G35   30.22F WCI   7
DOUGLAS        FAIR      21  13  71 NW5         N/A  WCI  15

$$
WYZ021-027>030-104>119-060800-
SOUTHERN WYOMING

CITY           SKY/WX    TMP DP  RH WIND       PRES   REMARKS
EVANSTON       FAIR      16  12  84 SW10      30.44S WCI   4
FORT BRIDGER   SUNNY     19  18  93 SW12      30.46F WCI   7
ROCK SPRINGS   FAIR      21  15  78 W20       30.38S WCI   6
DIXON          CLOUDY    16  12  84 NW5       30.47S WCI   9
RAWLINS        CLOUDY    21  13  71 SE12      30.34R WCI   9
SARATOGA       FAIR      12   5  73 S10       30.37S WCI  -1
LARAMIE        FAIR      17   8  67 SW22      30.24F WCI   0
CHEYENNE       FAIR      26  10  50 W16G23    30.21S WCI  14
TORRINGTON     FAIR      25  15  66 W9        30.22S WCI  15
PINE BLUFFS    FAIR      14   7  73 S6        30.24S WCI   5

$$




USA.gov is the U.S. government's official web portal to all federal, state and local government web resources and services.